• In Uzbekistan
  • List of Countries
  • For 7 days
  • Water Temperature
  • Satellite Maps
  • Weather Map
  • Weather Widgets
  • user-avatar
    Login

    Hourly Weather Shaki

    Today, 22 July, Monday

    Time Temperature Precipitation Wind Pressure Humidity
    00:00 +28°C° 0 mm 2 mps 733 mmHg 58%
    01:00 +28°C° 0 mm 2 mps 733 mmHg 60%
    02:00 +27°C° 0 mm 1 mps 732 mmHg 62%
    03:00 +27°C° 0 mm 1 mps 732 mmHg 62%
    04:00 +27°C° 0 mm 1 mps 732 mmHg 63%
    05:00 +28°C° 0 mm 1 mps 732 mmHg 64%
    06:00 +28°C° 0 mm 1 mps 732 mmHg 65%
    07:00 +30°C° 0 mm 1 mps 732 mmHg 59%
    08:00 +31°C° 0 mm 1 mps 732 mmHg 54%
    09:00 +34°C° 0 mm 2 mps 732 mmHg 48%
    10:00 +35°C° 0 mm 2 mps 732 mmHg 44%
    11:00 +37°C° 0 mm 3 mps 732 mmHg 40%
    12:00 +38°C° 0 mm 3 mps 732 mmHg 36%
    13:00 +40°C° 0 mm 4 mps 732 mmHg 34%
    14:00 +41°C° 0 mm 4 mps 732 mmHg 32%
    15:00 +42°C° 0 mm 5 mps 731 mmHg 30%
    16:00 +41°C° 0 mm 5 mps 731 mmHg 32%
    17:00 +40°C° 0 mm 5 mps 732 mmHg 34%
    18:00 +39°C° 0 mm 5 mps 732 mmHg 36%
    19:00 +36°C° 0 mm 5 mps 732 mmHg 42%
    20:00 +34°C° 0 mm 5 mps 732 mmHg 47%
    21:00 +32°C° 0 mm 5 mps 732 mmHg 53%
    22:00 +30°C° 0.1 mm 4 mps 732 mmHg 56%
    23:00 +29°C° 0.1 mm 3 mps 732 mmHg 58%

    Tomorrow, 23 July, Tuesday

    Time Temperature Precipitation Wind Pressure Humidity
    00:00 +28°C° 0.1 mm 2 mps 732 mmHg 61%
    01:00 +28°C° 0 mm 2 mps 732 mmHg 62%
    02:00 +28°C° 0 mm 2 mps 733 mmHg 64%
    03:00 +27°C° 0 mm 2 mps 733 mmHg 65%
    04:00 +28°C° 0 mm 2 mps 733 mmHg 63%
    05:00 +28°C° 0 mm 2 mps 733 mmHg 62%
    06:00 +28°C° 0 mm 2 mps 733 mmHg 60%
    07:00 +30°C° 0 mm 2 mps 733 mmHg 56%
    08:00 +31°C° 0 mm 3 mps 733 mmHg 52%
    09:00 +33°C° 0 mm 3 mps 732 mmHg 48%
    10:00 +35°C° 0 mm 4 mps 732 mmHg 45%
    11:00 +36°C° 0 mm 4 mps 732 mmHg 41%
    12:00 +37°C° 0 mm 4 mps 732 mmHg 38%
    13:00 +38°C° 0 mm 4 mps 731 mmHg 37%
    14:00 +40°C° 0 mm 5 mps 731 mmHg 35%
    15:00 +40°C° 0 mm 5 mps 730 mmHg 33%
    16:00 +39°C° 0 mm 5 mps 730 mmHg 35%
    17:00 +39°C° 0 mm 5 mps 730 mmHg 37%
    18:00 +38°C° 0 mm 6 mps 730 mmHg 39%
    19:00 +35°C° 0 mm 5 mps 731 mmHg 44%
    20:00 +32°C° 0 mm 5 mps 731 mmHg 50%
    21:00 +29°C° 0 mm 4 mps 731 mmHg 55%
    22:00 +28°C° 0 mm 4 mps 731 mmHg 57%
    23:00 +28°C° 0 mm 3 mps 731 mmHg 59%

    Day after tomorrow, 24 July, Wednesday

    Time Temperature Precipitation Wind Pressure Humidity
    00:00 +27°C° 0 mm 2 mps 731 mmHg 60%
    01:00 +27°C° 0 mm 2 mps 730 mmHg 62%
    02:00 +26°C° 0 mm 1 mps 730 mmHg 63%
    03:00 +26°C° 0 mm 1 mps 730 mmHg 64%
    04:00 +26°C° 0 mm 1 mps 730 mmHg 63%
    05:00 +27°C° 0 mm 1 mps 730 mmHg 61%
    06:00 +27°C° 0 mm 1 mps 730 mmHg 60%
    07:00 +29°C° 0 mm 1 mps 730 mmHg 55%
    08:00 +30°C° 0 mm 2 mps 730 mmHg 50%
    09:00 +31°C° 0 mm 2 mps 730 mmHg 45%
    10:00 +34°C° 0 mm 2 mps 729 mmHg 42%
    11:00 +35°C° 0 mm 2 mps 729 mmHg 39%
    12:00 +36°C° 0 mm 2 mps 729 mmHg 36%
    13:00 +37°C° 0 mm 2 mps 729 mmHg 35%
    14:00 +37°C° 0 mm 2 mps 728 mmHg 34%
    15:00 +38°C° 0 mm 2 mps 728 mmHg 33%
    16:00 +37°C° 0 mm 2 mps 728 mmHg 34%
    17:00 +37°C° 0 mm 2 mps 728 mmHg 35%
    18:00 +37°C° 0 mm 2 mps 728 mmHg 36%
    19:00 +35°C° 0 mm 2 mps 729 mmHg 40%
    20:00 +32°C° 0 mm 2 mps 729 mmHg 44%
    21:00 +30°C° 0 mm 2 mps 729 mmHg 47%
    22:00 +30°C° 0 mm 2 mps 729 mmHg 51%
    23:00 +29°C° 0 mm 2 mps 730 mmHg 54%

    25 July, Thursday

    Time Temperature Precipitation Wind Pressure Humidity
    00:00 +28°C° 0 mm 2 mps 730 mmHg 58%
    01:00 +27°C° 0 mm 2 mps 730 mmHg 59%
    02:00 +27°C° 0 mm 1 mps 730 mmHg 61%
    03:00 +26°C° 0 mm 1 mps 729 mmHg 63%
    04:00 +25°C° 0 mm 0 mps 730 mmHg 61%
    05:00 +25°C° 0 mm 0 mps 730 mmHg 60%
    06:00 +26°C° 0 mm 0 mps 730 mmHg 58%
    07:00 +30°C° 0 mm 1 mps 730 mmHg 54%
    08:00 +31°C° 0 mm 1 mps 730 mmHg 50%
    09:00 +34°C° 0 mm 2 mps 730 mmHg 46%
    10:00 +35°C° 0 mm 2 mps 730 mmHg 43%
    11:00 +36°C° 0 mm 2 mps 730 mmHg 39%
    12:00 +38°C° 0 mm 2 mps 730 mmHg 36%
    13:00 +38°C° 0 mm 2 mps 729 mmHg 33%
    14:00 +39°C° 0 mm 2 mps 729 mmHg 29%
    15:00 +40°C° 0 mm 3 mps 729 mmHg 26%
    16:00 +39°C° 0 mm 2 mps 729 mmHg 28%
    17:00 +39°C° 0 mm 2 mps 729 mmHg 29%
    18:00 +38°C° 0 mm 2 mps 729 mmHg 31%
    19:00 +36°C° 0 mm 2 mps 729 mmHg 36%
    20:00 +34°C° 0 mm 3 mps 730 mmHg 40%
    21:00 +30°C° 0 mm 3 mps 730 mmHg 45%
    22:00 +29°C° 0 mm 3 mps 730 mmHg 49%
    23:00 +28°C° 0 mm 3 mps 731 mmHg 53%

    26 July, Friday

    Time Temperature Precipitation Wind Pressure Humidity
    00:00 +27°C° 0 mm 2 mps 731 mmHg 58%
    01:00 +27°C° 0 mm 2 mps 731 mmHg 59%
    02:00 +26°C° 0 mm 2 mps 731 mmHg 60%
    03:00 +26°C° 0 mm 2 mps 731 mmHg 62%
    04:00 +26°C° 0 mm 2 mps 731 mmHg 60%
    05:00 +27°C° 0 mm 2 mps 731 mmHg 58%
    06:00 +28°C° 0 mm 2 mps 731 mmHg 56%
    07:00 +29°C° 0.1 mm 2 mps 731 mmHg 52%
    08:00 +31°C° 0.1 mm 2 mps 731 mmHg 48%
    09:00 +32°C° 0.1 mm 2 mps 731 mmHg 43%
    10:00 +34°C° 0.1 mm 3 mps 731 mmHg 41%
    11:00 +35°C° 0.1 mm 4 mps 730 mmHg 39%
    12:00 +36°C° 0.1 mm 4 mps 730 mmHg 38%
    13:00 +36°C° 0 mm 4 mps 730 mmHg 37%
    14:00 +37°C° 0 mm 3 mps 729 mmHg 36%
    15:00 +37°C° 0 mm 3 mps 729 mmHg 35%
    16:00 +37°C° 0 mm 3 mps 729 mmHg 35%
    17:00 +36°C° 0 mm 2 mps 729 mmHg 36%
    18:00 +36°C° 0 mm 2 mps 729 mmHg 36%
    19:00 +34°C° 0 mm 3 mps 729 mmHg 42%
    20:00 +32°C° 0 mm 4 mps 730 mmHg 48%
    21:00 +29°C° 0 mm 6 mps 730 mmHg 54%
    22:00 +28°C° 0 mm 4 mps 730 mmHg 59%
    23:00 +27°C° 0 mm 3 mps 730 mmHg 63%

    27 July, Saturday

    Time Temperature Precipitation Wind Pressure Humidity
    00:00 +26°C° 0 mm 2 mps 730 mmHg 68%
    01:00 +25°C° 0 mm 2 mps 730 mmHg 70%
    02:00 +25°C° 0 mm 1 mps 729 mmHg 73%
    03:00 +25°C° 0 mm 1 mps 729 mmHg 75%
    04:00 +25°C° 0.1 mm 1 mps 729 mmHg 73%
    05:00 +25°C° 0.1 mm 1 mps 729 mmHg 71%
    06:00 +26°C° 0.1 mm 1 mps 729 mmHg 69%
    07:00 +27°C° 0.1 mm 2 mps 729 mmHg 64%
    08:00 +28°C° 0.1 mm 2 mps 729 mmHg 58%
    09:00 +30°C° 0.1 mm 2 mps 729 mmHg 52%
    10:00 +31°C° 0 mm 2 mps 729 mmHg 49%
    11:00 +33°C° 0 mm 3 mps 729 mmHg 47%
    12:00 +33°C° 0 mm 3 mps 728 mmHg 44%
    13:00 +34°C° 0 mm 2 mps 728 mmHg 42%
    14:00 +35°C° 0 mm 2 mps 728 mmHg 41%
    15:00 +35°C° 0 mm 2 mps 728 mmHg 40%
    16:00 +35°C° 0 mm 2 mps 728 mmHg 40%
    17:00 +35°C° 0 mm 2 mps 727 mmHg 41%
    18:00 +34°C° 0 mm 2 mps 727 mmHg 42%
    19:00 +32°C° 0.1 mm 2 mps 728 mmHg 46%
    20:00 +30°C° 0.1 mm 2 mps 728 mmHg 51%
    21:00 +28°C° 0.1 mm 2 mps 728 mmHg 55%
    22:00 +28°C° 0.1 mm 2 mps 728 mmHg 59%
    23:00 +27°C° 0.1 mm 2 mps 728 mmHg 62%
    Show more